Regional Weather Roundup
Issued by NWS Cleveland, OH

Home | Current Version | Previous Version | Graphics & Text | Print | Product List | Glossary On
Versions: 1 2 3 4 5 6 7 8 9 10 11 12 13 14 15 16 17 18 19 20 21 22 23 24 25 26 27 28 29 30 31 32 33 34 35 36 37 38 39 40 41 42 43 44 45 46 47 48 49 50
000
ASUS41 KCLE 221810
RWRCLE
OHIO REGIONAL WEATHER ROUNDUP
NATIONAL WEATHER SERVICE WILMINGTON, OH
200 PM EDT SUN OCT 22 2017

NOTE: "FAIR" INDICATES FEW OR NO CLOUDS BELOW 12,000 FEET WITH NO
SIGNIFICANT WEATHER AND/OR OBSTRUCTIONS TO VISIBILITY.

OHZ001>008-015>018-024>027-034-035-043-044-221900-
   NORTHWEST OHIO

CITY           SKY/WX    TMP DP  RH WIND       PRES   REMARKS
DEFIANCE       FAIR      76  53  44 S15G24    30.08F
FINDLAY        FAIR      78  53  41 S21       30.11F
TOLEDO EXPRESS FAIR      78  58  49 S10G20    30.09F
TOLEDO EXEC    FAIR      77  56  48 S21G28    30.11F
LIMA           FAIR      75  55  49 S14       30.12F
$$

OHZ009>014-019>023-028>033-038-089-221900-
   NORTHEAST OHIO

CITY           SKY/WX    TMP DP  RH WIND       PRES   REMARKS
CLE-HOPKINS    PTSUNNY   74  50  42 S15G24    30.19F
CLE-LAKEFRONT  FAIR      77  47  34 S16       30.16F
CUY CO. ARPT   MOSUNNY   77  54  44 S16       30.20F
LORAIN-ELYRIA  FAIR      75  52  44 SW14G25   30.18F
ASHTABULA      FAIR      74  52  46 SE9       30.22F
AKRON-CANTON   PTSUNNY   74  51  44 S10       30.22F
WOOSTER        FAIR      76  52  43 S9        30.21F
MANSFIELD      FAIR      76  55  48 S17G23    30.19F
YOUNGSTOWN     PTSUNNY   74  53  48 S8        30.22F
$$

OHZ042-051>053-060>062-070>072-077>081-221900-
  SOUTHWEST OHIO

CITY           SKY/WX    TMP DP  RH WIND       PRES   REMARKS
CINC-COVINGTON PTSUNNY   75  57  53 S13       30.14F
CINC-LUNKEN    FAIR      75  56  51 S17       30.14F
HAMILTON       FAIR      76  55  48 VRB7G17   30.14F
DAYTON         FAIR      73  56  54 S13       30.15F
WRIGHT-PAT AFB FAIR      77  54  44 S13       30.14F
DAYTON GENERAL FAIR      74  53  48 S13       30.14F
WILMINGTON     FAIR      74  55  51 S16       30.17F
$$

OHZ036-037-039>041-045>050-054>059-063>069-073>076-082>088-221900-
  CENTRAL AND SOUTHEAST OHIO

CITY           SKY/WX    TMP DP  RH WIND       PRES   REMARKS
COLUMBUS       PTSUNNY   76  53  44 S13       30.19F
OSU AIRPORT    FAIR      75  55  49 S9G18     30.18F
BOLTON FIELD   SUNNY     77  55  47 S12G20    30.19F
RICKENBACK AFB FAIR      75  53  45 S12G17    30.18F
NEWARK         FAIR      77  53  43 S12       30.20F
MARION         FAIR      76  52  43 S14G25    30.17F
LANCASTER      FAIR      76  55  48 SW12G17   30.20F
ZANESVILLE     FAIR      77  46  33 VRB3      30.22F
NEW PHILLY     FAIR      77  50  38 VRB5      30.22F
$$




USA.gov is the U.S. government's official web portal to all federal, state and local government web resources and services.